Orbital Elements
Epoch 2025 Mar. 26.0 TT = JDT 2460760.5
T 2025 Apr. 10.61727 TT Rudenko
q 1.4313512 (2000.0) P Q
n 0.14610850 Peri. 332.93351 -0.05196438 -0.95676743
a 3.5701440 Node 118.79162 +0.96514783 -0.12171584
e 0.5990775 Incl. 19.05906 +0.25649437 +0.26416159
P 6.75
From 3684 observations 1951 Apr. 6-2020 July 20, mean residual 0".7.
Nongravitational parameters A1 = +0.01, A2 = -0.0004.
|